CW9561 Weather Reports


Display with metric or nautical units.
time (UTC)temp
F
wind
direction
speed
MPH
gust
MPH
rain 1hr
in
rain 24hr
in
rain mn
in
humidity
%
barometer
mb
20260509052027 47 275 0.0 0.0 0.00 0.00 0.00 48 1018.8
20260509050036 49 275 0.0 0.0 0.00 0.00 0.00 44 1019.0
20260509045033 50 275 0.0 0.0 0.00 0.00 0.00 44 1019.1
20260509044023 50 275 0.0 0.0 0.00 0.00 0.00 44 1019.2
20260509043036 49 275 0.0 0.0 0.00 0.00 0.00 44 1019.3
20260509042029 49 275 0.0 0.0 0.00 0.00 0.00 45 1019.4
20260509041041 49 275 0.0 0.0 0.00 0.00 0.00 44 1019.4
20260509040037 49 275 1.0 0.0 0.00 0.00 0.00 44 1019.3
20260509035030 50 275 0.0 0.0 0.00 0.00 0.00 44 1019.3
20260509034022 50 275 0.0 0.0 0.00 0.00 0.00 43 1019.2
20260509033038 50 275 0.0 0.0 0.00 0.00 0.00 43 1019.1
20260509032030 51 275 0.0 0.0 0.00 0.00 0.00 43 1019.1
20260509031029 51 275 0.0 0.0 0.00 0.00 0.00 42 1018.8
20260509030023 51 275 0.0 0.0 0.00 0.00 0.00 43 1018.7
20260509025040 51 275 0.0 0.0 0.00 0.00 0.00 42 1018.7
20260509024032 52 275 0.0 0.0 0.00 0.00 0.00 42 1018.7
20260509023032 52 275 0.0 0.0 0.00 0.00 0.00 42 1018.6
20260509022031 52 275 0.0 0.0 0.00 0.00 0.00 43 1018.6
20260509021022 53 275 0.0 0.0 0.00 0.00 0.00 42 1018.4
20260509020039 54 179 0.0 0.0 0.00 0.00 0.00 40 1018.3
20260509015032 54 278 0.0 0.0 0.00 0.00 0.00 40 1018.3
20260509014029 55 277 0.0 0.0 0.00 0.00 0.00 39 1018.4
20260509013024 56 277 0.0 0.0 0.00 0.00 0.00 38 1018.4
20260509012037 56 332 0.0 0.0 0.00 0.00 0.00 38 1018.5
20260509010028 58 276 0.0 0.0 0.00 0.00 0.00 36 1017.8
20260509005026 58 318 1.0 0.0 0.00 0.00 0.00 37 1017.8
20260509004038 58 285 1.0 0.0 0.00 0.00 0.00 36 1017.9
20260509002028 59 296 2.0 0.0 0.00 0.00 0.00 35 1017.9
20260509001022 60 341 2.0 0.0 0.00 0.00 0.00 35 1017.9
20260509000041 60 306 1.0 0.0 0.00 0.00 0.00 35 1018.1
20260508235033 60 343 2.0 0.0 0.00 0.00 0.00 36 1018.1
20260508233034 60 291 3.0 0.0 0.00 0.00 0.00 36 1018.1
20260508232030 60 321 2.0 0.0 0.00 0.00 0.00 37 1018.2
20260508230029 60 330 3.0 0.0 0.00 0.00 0.00 34 1018.2
20260508225022 61 360 2.0 0.0 0.00 0.00 0.00 35 1018.4
20260508224037 61 256 2.0 0.0 0.00 0.00 0.00 35 1018.3
20260508223032 62 296 3.0 0.0 0.00 0.00 0.00 34 1018.3
20260508222032 61 355 3.0 0.0 0.00 0.00 0.00 35 1018.2
20260508221024 61 28 3.0 0.0 0.00 0.00 0.00 35 1018.3
20260508215039 61 317 4.0 0.0 0.00 0.00 0.00 37 1018.4
20260508214033 61 315 3.0 0.0 0.00 0.00 0.00 35 1018.7
20260508211031 61 307 3.0 0.0 0.00 0.00 0.00 37 1018.9
20260508205025 61 336 2.0 0.0 0.00 0.00 0.00 35 1018.2
20260508204023 61 355 4.0 0.0 0.00 0.00 0.00 36 1018.2
20260508203033 61 5 3.0 0.0 0.00 0.00 0.00 37 1018.2
20260508202027 60 321 2.0 0.0 0.00 0.00 0.00 36 1018.4
20260508201040 60 285 2.0 0.0 0.00 0.00 0.00 36 1018.6
20260508195027 61 324 2.0 0.0 0.00 0.00 0.00 36 1019.1
20260508193021 60 5 1.0 0.0 0.00 0.00 0.00 39 1019.3
20260508192033 59 161 1.0 0.0 0.00 0.00 0.00 35 1019.2
20260508191029 60 326 2.0 0.0 0.00 0.00 0.00 42 1019.3
20260508190040 59 223 1.0 0.0 0.00 0.00 0.00 36 1019.4
20260508185037 59 254 1.0 0.0 0.00 0.00 0.00 39 1019.5
20260508183026 60 282 1.0 0.0 0.00 0.00 0.00 37 1019.1
20260508182020 59 355 1.0 0.0 0.00 0.00 0.00 37 1019.1
20260508180034 58 234 1.0 0.0 0.00 0.00 0.00 38 1019.5
20260508175026 58 10 2.0 0.0 0.00 0.00 0.00 39 1019.7
20260508174022 58 267 1.0 0.0 0.00 0.00 0.00 39 1019.8
20260508172031 57 250 2.0 0.0 0.00 0.00 0.00 38 1019.9
20260508171028 56 254 2.0 0.0 0.00 0.00 0.00 42 1019.9
20260508164035 55 250 3.0 0.0 0.00 0.00 0.00 43 1020.1
20260508163028 56 355 1.0 0.0 0.00 0.00 0.00 43 1019.6
20260508162019 56 355 1.0 0.0 0.00 0.00 0.00 45 1019.7
20260508160020 54 238 2.0 0.0 0.00 0.00 0.00 45 1020.2
20260508155037 53 294 4.0 0.0 0.00 0.00 0.00 46 1020.2
20260508154028 53 268 1.0 0.0 0.00 0.00 0.00 47 1020.2
20260508153022 52 233 2.0 0.0 0.00 0.00 0.00 46 1020.4
20260508152021 52 254 2.0 0.0 0.00 0.00 0.00 49 1019.8
20260508151037 52 304 2.0 0.0 0.00 0.00 0.00 47 1020.1
20260508150033 51 236 2.0 0.0 0.00 0.00 0.00 50 1020.1
20260508144025 49 95 1.0 0.0 0.00 0.00 0.00 54 1020.4
20260508143026 47 82 0.0 0.0 0.00 0.00 0.00 55 1020.5
20260508142018 47 105 0.0 0.0 0.00 0.00 0.00 56 1020.7
20260508135029 45 40 0.0 0.0 0.00 0.00 0.00 61 1020.3
20260508134022 44 124 0.0 0.0 0.00 0.00 0.00 62 1020.2
20260508133021 43 123 0.0 0.0 0.00 0.00 0.00 61 1020.1
20260508131031 42 136 0.0 0.0 0.00 0.00 0.00 61 1020.0
20260508130023 41 167 0.0 0.0 0.00 0.00 0.00 66 1020.0
20260508124035 38 167 0.0 0.0 0.00 0.00 0.00 70 1019.6
20260508123028 37 167 0.0 0.0 0.00 0.00 0.00 73 1019.4
20260508122020 36 167 0.0 0.0 0.00 0.00 0.00 73 1019.5
20260508121034 36 241 0.0 0.0 0.00 0.00 0.00 71 1019.5
20260508120034 36 242 0.0 0.0 0.00 0.00 0.00 69 1019.5
20260508115029 37 242 0.0 0.0 0.00 0.00 0.00 68 1019.4
20260508114024 37 242 0.0 0.0 0.00 0.00 0.00 67 1019.3
20260508113021 37 242 0.0 0.0 0.00 0.00 0.00 67 1019.2
20260508112034 38 242 0.0 0.0 0.00 0.00 0.00 67 1019.2
20260508111030 38 242 0.0 0.0 0.00 0.00 0.00 66 1019.3
20260508110027 38 242 0.0 0.0 0.00 0.00 0.00 67 1018.6
20260508105022 38 242 0.0 0.0 0.00 0.00 0.00 67 1018.5
20260508104036 38 242 0.0 0.0 0.00 0.00 0.00 67 1018.5
20260508103028 37 241 0.0 0.0 0.00 0.00 0.00 68 1019.2
20260508102030 37 242 0.0 0.0 0.00 0.00 0.00 69 1018.4
20260508101021 38 242 0.0 0.0 0.00 0.00 0.00 68 1018.4
20260508095022 38 242 0.0 0.0 0.00 0.00 0.00 69 1018.6
20260508094040 38 242 0.0 0.0 0.00 0.00 0.00 69 1018.7
20260508093032 39 241 0.0 0.0 0.00 0.00 0.00 69 1018.8
20260508092029 40 241 0.0 0.0 0.00 0.00 0.00 68 1018.9
20260508091027 41 241 0.0 0.0 0.00 0.00 0.00 66 1019.0
20260508090029 41 241 0.0 0.0 0.00 0.00 0.00 67 1019.0
20260508085020 41 241 0.0 0.0 0.00 0.00 0.00 66 1019.0
20260508084034 41 241 0.0 0.0 0.00 0.00 0.00 67 1019.0
20260508083029 41 241 0.0 0.0 0.00 0.00 0.00 66 1019.0
20260508082021 41 241 0.0 0.0 0.00 0.00 0.00 67 1019.0
20260508081020 41 241 0.0 0.0 0.00 0.00 0.00 69 1019.0
20260508080032 40 237 0.0 0.0 0.00 0.00 0.00 71 1019.2
20260508074021 40 261 0.0 0.0 0.00 0.00 0.00 72 1018.7
20260508072033 39 269 1.0 0.0 0.00 0.00 0.00 72 1019.2
20260508071029 38 269 2.0 0.0 0.00 0.00 0.00 72 1019.2
20260508070027 38 269 1.0 0.0 0.00 0.00 0.00 71 1019.3
20260508065020 38 269 0.0 0.0 0.00 0.00 0.00 71 1019.3
20260508063028 39 269 0.0 0.0 0.00 0.00 0.00 72 1019.4
20260508062026 39 269 0.0 0.0 0.00 0.00 0.00 72 1019.3
20260508061021 39 269 0.0 0.0 0.00 0.00 0.00 72 1019.3
20260508060037 39 269 0.0 0.0 0.00 0.00 0.00 72 1019.2
20260508055028 40 269 0.0 0.0 0.00 0.00 0.04 71 1019.4
20260508054024 40 269 0.0 0.0 0.00 0.00 0.04 71 1019.4